Location: Degersen
(52.2871°N, 9.5716°E)
Time: 13:49:32
(UTC+00:00)

Cosmos 1707 Rocket - Pass Details

Date: 20 January 2026
Orbit: 599 x 623 km, 82.5° (Epoch: 16 February)

Event Time Altitude Azimuth Distance (km) Brightness Sun altitude
Exits shadow 05:08:47 15° 346° (NNW) 1,671 5.5 -19.4°
Maximum altitude 05:12:23 78° 263° (W) 626 3.4 -18.8°
Drops below altitude 10° 05:16:42 10° 176° (S) 1,955 6.3 -18.2°
Sets 05:18:55 0° 175° (S) 2,859 7.2 -17.8°
